Flag for Albania Weather past 2 weeks in Tirana, Albania

Now
72 °F

Scattered clouds.


Feels Like: 75 °F
Forecast: 60 / 71 °F
Wind: 7 mph from Northwest

Location: Tirana Airport

Current Time: Oct 2, 2014 at 6:08:06 PM

Latest Report: Oct 2, 2014 at 5:20 PM


Visibility: N/A

Pressure: 30.09 "Hg

Humidity: 65%

Dew point: 59 °F

Location of TiranaLocation

Historic Weather in Tirana — Graph

°F

Tirana temperature yesterday

Maximum temperature yesterday: 79 °F (at 1:20 PM)
Minimum temperature yesterday: 52 °F (at 5:20 AM)
Average temperature yesterday: 64 °F

Past Weeks' High & Low Weather Summary

 TemperatureHumidityPressure
High84 °F (Sep 19, 1:20 PM)94% (Sep 18, 1:20 AM)30.39 "Hg (Sep 18, 1:20 AM)
Low46 °F (Sep 24, 3:50 AM)25% (Sep 24, 12:50 PM)29.68 "Hg (Sep 23, 3:50 AM)
Average66 °F69%30.09 "Hg
* Reported Sep 17 4:20 PM — Oct 2 4:50 PM, Tirana, Weather by CustomWeather, © 2014

Note: Actual official high and low records may vary slightly from our data, if they occured in-between our weather recording intervals... More about our weather records

Advertising

Tirana weather history for previous 24 hours

 ConditionsComfort  
Time TempWeatherWind HumidityBarometerVisibility
4:50 PM
Oct 2
73 °FBroken clouds.7 mph65%30.09 "HgN/A
4:20 PM73 °FBroken clouds.8 mph65%30.09 "HgN/A
3:50 PM73 °FScattered clouds.10 mph65%30.09 "HgN/A
3:20 PM75 °FScattered clouds.5 mph57%30.09 "HgN/A
2:50 PM75 °FBroken clouds.5 mph57%30.09 "HgN/A
2:20 PM79 °FScattered clouds.2 mph51%30.12 "HgN/A
1:50 PM79 °FScattered clouds.No wind51%30.12 "HgN/A
1:20 PM77 °FScattered clouds.2 mph51%30.12 "HgN/A
12:50 PM77 °FScattered clouds.2 mph57%30.12 "HgN/A
12:20 PM79 °FScattered clouds.2 mph51%30.15 "HgN/A
11:50 AM75 °FScattered clouds.2 mph57%30.15 "HgN/A
11:20 AM73 °FSunny.2 mph61%30.15 "Hg10 mi
10:50 AM72 °FSunny.2 mph61%30.15 "Hg10 mi
10:20 AM70 °FSunny.2 mph69%30.18 "Hg10 mi
9:50 AM70 °FClear.No wind64%30.15 "HgN/A
9:20 AM66 °FSunny.2 mph78%30.15 "Hg10 mi
8:50 AM63 °FPassing clouds.3 mph88%30.15 "HgN/A
8:20 AM61 °FScattered clouds.2 mph94%30.15 "Hg3 mi
7:50 AM59 °FScattered clouds.2 mph94%30.15 "Hg4 mi
7:20 AM57 °FFog.3 mph94%30.15 "Hg1 mi
6:50 AM55 °FFog.3 mph94%30.15 "Hg2 mi
6:20 AM55 °FFog.No wind94%30.15 "Hg0 mi
5:50 AM55 °FFog.3 mph94%30.15 "Hg0 mi
5:20 AM55 °FClear.5 mph94%30.15 "Hg1 mi
4:50 AM54 °FLight fog.3 mph94%30.15 "Hg0 mi
4:20 AM55 °FDense fog.1 mph94%30.15 "Hg0 mi
3:50 AM55 °FLight fog.3 mph94%30.15 "Hg0 mi
3:20 AM55 °FLight fog.No wind94%30.15 "Hg0 mi
2:50 AM55 °FLight fog.2 mph94%30.15 "Hg1 mi
2:20 AM55 °FFog.2 mph94%30.15 "Hg1 mi
1:50 AM57 °FClear.2 mph94%30.15 "Hg3 mi
1:20 AM57 °FFog.2 mph94%30.15 "Hg2 mi
12:50 AM57 °FPassing clouds.2 mph94%30.15 "Hg3 mi
12:20 AM59 °FPassing clouds.2 mph94%30.18 "Hg3 mi
11:50 PM
Oct 1
59 °FPassing clouds.5 mph94%30.18 "Hg3 mi
11:20 PM59 °FClear.2 mph94%30.18 "Hg4 mi
10:50 PM61 °FClear.2 mph88%30.18 "Hg3 mi
10:20 PM61 °FClear.2 mph88%30.18 "Hg3 mi
9:50 PM61 °FClear.3 mph94%30.18 "Hg3 mi
9:20 PM63 °FClear.2 mph88%30.18 "Hg4 mi
8:50 PM61 °FClear.2 mph94%30.18 "Hg4 mi
8:20 PM63 °FClear.2 mph94%30.18 "Hg5 mi
7:45 PM64 °FClear.No wind88%30.18 "Hg10 mi
7:20 PM66 °FSunny.2 mph88%30.15 "Hg10 mi
6:50 PM66 °FSunny.5 mph83%30.15 "Hg10 mi
6:20 PM68 °FSunny.6 mph78%30.15 "Hg10 mi
Weather by CustomWeather, © 2014

See weather overviewHow to use our weather pages